Pagrindinis puslapis
METAR-TAF:

METAR-TAF

Oro uostai :

Gage, Oklahoma, Jungtinės Amerikos Valstijos

platuma: 36-17-48N, ilguma: 099-46-08W, Aukštis: 677 m

Dabartinis oras

Ataskaita buvo paskelbta 26 minutes, ne 03:53 UTC
Vėjas 5 kt iš Vakarų/Pietvakarių
Temperatūra 2°C
Drėgmė 87%
Slėgis 1017 hPa
Matomumas: 16.1 km
Giedras dangus

METAR: KGAG 010353Z AUTO 24005KT 10SM CLR 02/00 A3003 RMK AO2 SLP168 T00220000

Laikas: 22:19 (04:19 UTC)


TAF: trūkstamas

Orai ataskaitas ir orų prognozės (METAR, TAF).

turimą stotys yra geltonos ir raudonos taškus žemėlapyje.

Perkelti pele per norėdami pamatyti stoties vardą.

Tada spustelėkite, norėdami matyti oro stebėjimo ir prognozės.

Norėdami pakeisti žemėlapį: spustelėkite ant žalios mygtukų su juodo kryžiaus žemyn,; žalią mygtuką su brūkšneliu, jei norite nutolinti; arba žalių rodyklių gretimoms žemėlapius.


METAR-TAF: